Location: ??????
(41.3164°N, 22.6615°E)
Time: 20:45:15
(UTC+00:00)

Envisat - Visible Passes

Search period start: 22 January 2022 00:00
Search period end: 01 February 2022 00:00
Orbit: 764 x 766 km, 98.2° (Epoch: 22 January)

Date Brightness Start Highest point End Pass type
(mag) Time Alt. Az. Time Alt. Az. Time Alt. Az.
22 Jan 6.0 01:55:03 10° ENE 01:55:57 10° E 01:56:52 10° E visible
22 Jan 2.8 03:30:30 10° NNE 03:35:37 86° WNW 03:40:41 10° SSW visible
22 Jan 4.8 05:12:21 10° NW 05:13:48 11° WNW 05:15:16 10° WNW visible
23 Jan 4.1 02:53:51 10° NNE 02:58:41 42° E 03:03:28 10° S visible
23 Jan 4.0 04:33:26 10° NNW 04:37:25 24° WNW 04:41:22 10° WSW visible
24 Jan 5.4 02:17:56 10° NE 02:21:33 19° E 02:25:08 10° SE visible
24 Jan 3.1 03:55:55 10° N 04:00:49 49° WNW 04:05:41 10° SW visible
25 Jan 3.1 03:18:55 10° NNE 03:24:01 75° ESE 03:29:05 10° S visible
25 Jan 4.6 04:59:46 10° NNW 05:02:23 14° WNW 05:04:59 10° W visible
26 Jan 4.5 02:42:26 10° NNE 02:47:02 33° E 02:51:35 10° SSE visible
26 Jan 3.7 04:21:35 10° N 04:25:56 29° WNW 04:30:15 10° SW visible
27 Jan 5.7 02:06:58 10° NE 02:09:50 15° E 02:12:41 10° SE visible
27 Jan 2.9 03:44:14 10° N 03:49:16 63° WNW 03:54:16 10° SSW visible
28 Jan 3.5 03:07:23 10° NNE 03:12:24 58° E 03:17:23 10° S visible
28 Jan 4.3 04:47:37 10° NNW 04:50:56 18° WNW 04:54:15 10° WSW visible
29 Jan 4.9 02:31:07 10° NE 02:35:21 26° E 02:39:34 10° SSE visible
29 Jan 3.5 04:09:47 10° N 04:14:25 37° WNW 04:19:02 10° SW visible
30 Jan 6.0 01:56:29 10° ENE 01:58:06 11° E 01:59:42 10° ESE visible
30 Jan 2.8 03:32:36 10° N 03:37:42 81° WNW 03:42:45 10° SSW visible
31 Jan 3.9 02:55:54 10° NNE 03:00:47 45° E 03:05:38 10° S visible
31 Jan 4.1 04:35:37 10° NNW 04:39:28 22° WNW 04:43:18 10° WSW visible
